Details From CYPX - Puvirnituq
To CYYQ - Churchill
Flight Number -
Tags Standard
Created
Modified
Stats Distance 522 nm / 967 km
Max Altitude 35,000 ft / 10,668 m
Waypoints 5
Social Downloads 32
Likes 0
Share

Download

Looking for another format? Having issues loading an existing format? Contact us
Advertisement - Login to hide

Notes

None

Route

CYPX MIBNA VIMSA YYQ CYYQ

ID Type Via Altitude (ft/m) Position (lat/lon) Dist (leg/tot) Name
O CYPX APT - 74 / 23 60.05042 / -77.28694 - / 0 nm PUVIRNITUQ
MIBNA FIX - 35,000 / 10,668 60.08333 / -80.00000 81 / 81 nm
VIMSA FIX - 35,000 / 10,668 59.16667 / -90.00000 308 / 389 nm
YYQ VOR - 1,427 / 435 58.74167 / -94.13528 130 / 520 nm CHURCHILL VOR-DME
O CYYQ APT - 94 / 29 58.73450 / -94.06657 2 / 522 nm

Altitude Profile

Advertisement - Login to hide

Weather


0- 5 10 15 20 25 30 35+ Temperature / °C

Clouds and Precipitation
Forecast for 2021-03-22 12:00 UTC. Updated a month ago

Ground ~20,000 ft ~40,000 ft Winds

CYPX

Details ICAO CYPX (YPX)
Name PUVIRNITUQ
Region Canada
Timezone America/Montreal (UTC-4.0)
Stats Elevation 74 ft / 23 m (AMSL)
Location 60.050400° -77.286900°
Runways 1
Magnetic Variation 19.101° W

METAR

CYPX 171100Z AUTO 05010KT 9SM FEW130 M12/M14 A2995 RMK SLP146

Decode

TAF

TAF CYPX 170538Z 1706/1718 09007KT P6SM BKN100 FM170900 07010KT P6SM SCT050 BKN100 TEMPO 1709/1718 BKN050 RMK FCST BASED ON AUTO OBS. NXT FCST BY 171200Z

Decode

Departure Runways

ID Width Length Bearing (true/mag) Surface Threshold Overrun Markings Lighting
01 100 ft / 30 m 4,971 ft / 1,515 m 343.44° / 2.55° GRAVEL 0 ft / 0 m 0 ft / 0 m VISUAL EDGE THRESHOLD REIL-OMNI
19 100 ft / 30 m 4,971 ft / 1,515 m 163.44° / 182.54° GRAVEL 0 ft / 0 m 0 ft / 0 m VISUAL EDGE THRESHOLD TDZ REIL-OMNI

CYYQ

Details ICAO CYYQ (YYQ)
Name CHURCHILL
Region Canada
Timezone America/Winnipeg (UTC-5.0)
Stats Elevation 94 ft / 29 m (AMSL)
Location 58.744000° -94.063900°
Runways 2
Magnetic Variation 2.044° W

METAR

CYYQ 171100Z 36023KT 3SM -SN OVC004 M04/M05 A2997 RMK SC8 VIS VRB 2-4 SLP151

Decode

TAF

TAF AMD CYYQ 170933Z 1709/1806 26005KT 3SM -SN SCT006 BKN030 OVC150 TEMPO 1709/1713 1SM -SN BKN006 OVC020 BECMG 1711/1713 01018KT FM171300 01018KT 5SM -SN SCT008 OVC030 TEMPO 1713/1718 11/2SM -SN OVC008 FM171800 01015G25KT P6SM -SN BKN012 OVC060 TEMPO 1718/1723 4SM -SN FM172300 36012G22KT P6SM SCT020 BKN100 FM180300 35012KT 6SM -SN BKN020 RMK NXT FCST BY 171200Z

Decode

Destination Runways

ID Width Length Bearing (true/mag) Surface Threshold Overrun Markings Lighting
07 100 ft / 30 m 3,988 ft / 1,215 m 70.97° / 73.02° GRAVEL 0 ft / 0 m 0 ft / 0 m VISUAL EDGE THRESHOLD
15 160 ft / 49 m 9,178 ft / 2,797 m 152.64° / 154.68° ASPHALT 0 ft / 0 m 0 ft / 0 m APP EDGE THRESHOLD REIL-OMNI
25 100 ft / 30 m 3,988 ft / 1,215 m 250.99° / 253.03° GRAVEL 0 ft / 0 m 0 ft / 0 m VISUAL EDGE THRESHOLD REIL-OMNI
33 160 ft / 49 m 9,178 ft / 2,797 m 332.66° / 334.70° ASPHALT 0 ft / 0 m 0 ft / 0 m APP EDGE THRESHOLD SSALR

Popular Alternatives